www.pogodaiklimat.ru

Погода и климат >> Архив погоды >> Франция >> Paris Orly Airport


АРХИВ ПОГОДЫ в Paris Orly Airport

Время (UTC), дата Ветер
(напр.,м/с)
 
Видим.   Явления Облачность Т
(С)
Тd
(С)
f
(%)
Тe
(С)
Тes
(С)
Комфортность P
(гПа)
Po
(гПа)
Тmin
(С)
Tmax
(С)
R
(мм)
R24
(мм)
S
(см)
01 14.10 штиль 0
{1}
8000 м местами туман поземный ясно +11.0 +10.1 94 +10 +10 тепло 1027.2 1016.2
02 14.10 СЗ 1
{2}
8000 м местами туман поземный ясно +10.5 +9.6 94 +10 +10 тепло 1026.9 1015.9 0.2
03 14.10 Ю 1
{1}
8000 м местами туман поземный 1/1 60 м
[St]
+10.4 +9.5 94 +11 +11 тепло 1026.7 1015.7 0.2
04 14.10 штиль 0 100 м туман местами ясно +10.0 +9.1 94 +9 +9 тепло 1026.7 1015.7
05 14.10 штиль 0 200 м туман местами 3/3 30 м
[St]
+10.1 +9.5 96 +9 +9 тепло 1026.7 1015.7
06 14.10 СВ 1 100 м туман местами 1/1 50 м
[St Ac trans]
+9.3 +8.4 94 +10 +10 тепло 1027.0 1015.9 +9.2 +17.0 0.2
07 14.10 штиль 0 7000 м в посл. час туман ясно +11.4 +11.2 99 +11 +11 тепло 1027.2 1016.2
08 14.10 штиль 0 9000 м ясно +13.7 +12.9 95 +13 +15 тепло 1027.5 1016.6
09 14.10 штиль 0 14 км {туман} ясно +16.1 +12.6 80 +16 +19 тепло 1027.6 1016.8
10 14.10 СВ 1 17 км ясно +17.7 +13.0 74 +19 +25 тепло 1027.5 1016.8
11 14.10 В 1 25 км ясно +19.6 +13.1 66 +22 +29 комфорт 1027.1 1016.4
12 14.10 ЮВ 2 25 км {туман} ясно +21.3 +13.2 60 +24 +30 комфорт 1026.0 1015.4
13 14.10 Ю 1 8000 м ясно +22.2 +13.5 58 +25 +31 комфорт 1025.5 1015.0
14 14.10 ЮВ 1 28 км ясно +22.5 +13.6 57 +26 +30 жарко 1025.0 1014.5
15 14.10 ЮВ 1 28 км ясно +22.7 +13.7 57 +26 +28 жарко 1024.8 1014.3
16 14.10 Ю 1 28 км ясно +21.8 +12.9 57 +24 +25 комфорт 1024.6 1014.1
17 14.10 штиль 0 30 км ясно +18.6 +12.6 68 +19 +19 тепло 1024.9 1014.2
18 14.10 В 1 20 км ясно +16.7 +12.2 75 +18 +18 тепло 1025.2 1014.5 +9.1 +22.9
19 14.10 Ю 1 20 км ясно +15.2 +12.0 81 +16 +16 тепло 1025.3 1014.5
20 14.10 штиль 0 20 км ясно +14.5 +12.2 86 +14 +14 тепло 1025.2 1014.4
21 14.10 штиль 0 20 км ясно +13.8 +12.0 89 +13 +13 тепло 1024.9 1014.1
22 14.10 штиль 0 20 км ясно +14.2 +12.2 88 +14 +14 тепло 1024.7 1013.9
23 14.10 СВ 1 8000 м ясно +12.6 +10.3 86 +13 +13 тепло 1024.7 1013.8
00 15.10 штиль 0 20 км ясно +13.1 +12.3 95 +13 +13 тепло 1024.3 1013.4 0.2
01 15.10 штиль 0 200 м туман н/о +12.9 +11.6 92 +12 +12 тепло 1024.0 1013.1
02 15.10 штиль 0 500 м туман н/о +12.5 +11.2 92 +12 +12 тепло 1023.5 1012.6
03 15.10 штиль 0 2100 м ясно +12.0 +10.7 92 +11 +11 тепло 1023.3 1012.4
04 15.10 штиль 0 1000 м ясно +11.3 +10.2 93 +11 +11 тепло 1023.5 1012.6
05 15.10 ЮВ 1 12 км местами туман поземный ясно +10.8 +9.7 93 +11 +11 тепло 1023.5 1012.5
06 15.10 Ю 1 500 м местами туман поземный ясно +10.7 +9.9 95 +11 +11 тепло 1023.4 1012.4 +10.5 +16.7 0.4
07 15.10 Ю 1 7000 м ясно +11.1 +10.5 96 +11 +11 тепло 1023.3 1012.4
08 15.10 Ю 1 9000 м ясно +12.8 +11.4 91 +14 +15 тепло 1023.7 1012.8
09 15.10 Ю 2 8000 м ясно +15.2 +12.1 82 +15 +18 тепло 1023.6 1012.8
10 15.10 Ю 2 10 км ясно +17.6 +12.9 74 +18 +23 тепло 1023.3 1012.6
11 15.10 Ю 3 16 км ясно +20.5 +14.4 68 +24 +28 комфорт 1022.9 1012.3
12 15.10 Ю 2 12 км ясно +21.9 +14.3 62 +25 +31 комфорт 1022.3 1011.8
13 15.10 Ю 2 20 км ясно +22.9 +14.5 59 +27 +32 душно 1021.8 1011.3
14 15.10 Ю 3 13 км ясно +23.8 +14.5 56 +26 +30 жарко 1021.6 1011.2
15 15.10 Ю 2 25 км ясно +23.8 +13.6 53 +26 +28 жарко 1021.0 1010.6
16 15.10 Ю 2 25 км 1/0
[]
+23.0 +13.5 55 +26 +27 жарко 1021.1 1010.6
17 15.10 Ю 2 22 км 1/0
[]
+21.3 +13.2 60 +24 +24 комфорт 1021.3 1010.8
18 15.10 Ю 2 25 км н/о +20.2 +12.9 63 +23 +23 комфорт 1022.1 1011.5 +10.6 +23.9
19 15.10 Ю 1 16 км 4/0
[Ac trans Ci sp]
+19.2 +12.9 67 +21 +21 комфорт 1022.2 1011.6
20 15.10 Ю 1 19 км 4/0
[Ac trans Ci sp]
+17.9 +13.2 74 +19 +19 тепло 1022.4 1011.7
21 15.10 Ю 2 18 км 4/0
[Ac trans Ci sp]
+17.1 +12.8 76 +18 +18 тепло 1022.5 1011.8
22 15.10 Ю 3
{5}
25 км 8/0
[Ac trans Ci sp]
+17.6 +12.9 74 +18 +18 тепло 1022.5 1011.8
23 15.10 Ю 2 25 км 8/0
[Ac trans Ci sp]
+17.2 +12.9 76 +18 +18 тепло 1022.1 1011.4
00 16.10 Ю 1 20 км 4/0
[Ac trans Ci sp]
+16.3 +12.6 79 +17 +17 тепло 1022.3 1011.6
01 16.10 Ю 2 18 км 1/0
[Ac trans]
+15.8 +12.7 82 +16 +16 тепло 1022.0 1011.3
02 16.10 Ю 1 20 км ясно +15.3 +12.6 84 +16 +16 тепло 1021.9 1011.1
03 16.10 Ю 1 13 км ясно +14.8 +12.5 86 +15 +15 тепло 1021.6 1010.8
04 16.10 Ю 1 20 км ясно +14.0 +12.0 88 +14 +14 тепло 1021.7 1010.9
05 16.10 Ю 1 13 км ясно +13.7 +11.7 88 +15 +15 тепло 1021.8 1011.0
06 16.10 Ю 1 10 км ясно +13.6 +11.6 88 +14 +14 тепло 1021.5 1010.7 +13.6 +20.2
07 16.10 Ю 1 14 км ясно +13.9 +11.9 88 +14 +14 тепло 1022.1 1011.3
08 16.10 Ю 1 17 км ясно +15.7 +12.4 81 +16 +17 тепло 1022.0 1011.3
09 16.10 Ю 2 18 км ясно +17.7 +12.8 73 +18 +21 тепло 1021.9 1011.2
10 16.10 Ю 3
{5}
18 км ясно +19.3 +13.5 69 +21 +24 комфорт 1021.7 1011.1
11 16.10 Ю 2 18 км ясно +21.6 +14.0 62 +24 +30 комфорт 1021.1 1010.6
12 16.10 Ю 2 18 км ясно +23.0 +14.3 58 +27 +32 душно 1021.0 1010.5
13 16.10 Ю 2 20 км 4/0
[]
+24.2 +14.9 56 +27 +31 жарко 1020.3 1009.9
14 16.10 Ю 2 20 км 4/0
[]
+24.4 +14.8 55 +27 +30 жарко 1019.9 1009.5
15 16.10 Ю 3 28 км 1/0
[]
+24.1 +14.8 56 +27 +29 жарко 1019.9 1009.5
16 16.10 ЮЗ 2 25 км ясно +23.6 +14.3 56 +26 +27 жарко 1020.2 1009.8
17 16.10 ЮЗ 2 20 км 3/0
[Ac cast]
+21.6 +14.0 62 +24 +24 комфорт 1020.7 1010.2
18 16.10 ЮЗ 2 21 км 1/0
[Ac trans]
+19.5 +14.1 71 +22 +22 комфорт 1021.3 1010.7 +13.5 +24.5
19 16.10 ЮЗ 1 14 км 3/3 1500 м
[Sc Ac trans]
+17.5 +13.6 78 +19 +19 тепло 1021.7 1011.0
20 16.10 ЮЗ 1 14 км 5/4 1500 м
[Sc Ac trans]
+16.7 +13.6 82 +18 +18 тепло 1021.8 1011.1
21 16.10 З 2 12 км 8/6 1500 м
[Sc Ac trans]
+15.8 +13.1 84 +16 +16 тепло 1022.2 1011.5
22 16.10 З 1 15 км 4/3 1500 м
[Sc Ac trans]
+16.1 +13.8 86 +17 +17 тепло 1022.6 1011.9
23 16.10 штиль 0 15 км 4/0
[]
+15.6 +13.4 87 +15 +15 тепло 1022.8 1012.0
00 17.10 СЗ 1 12 км 5/1 1500 м
[Sc Ci fib]
+15.0 +13.2 89 +16 +16 тепло 1022.7 1011.9
01 17.10 штиль 0 18 км 9/8 1500 м
[Sc Ci fib]
+14.2 +12.8 91 +14 +14 тепло 1022.7 1011.9
02 17.10 З 1 18 км 9/6 1500 м
[Sc Ci fib]
+13.4 +12.1 92 +14 +14 тепло 1022.7 1011.9
03 17.10 Ю 1 18 км 9/6 1500 м
[Sc Ci fib]
+12.9 +11.6 92 +14 +14 тепло 1022.7 1011.8
04 17.10 З 1 18 км 9/3 1500 м
[Sc Ci fib]
+11.6 +10.2 91 +12 +12 тепло 1022.6 1011.7
05 17.10 С 1 13 км 9/0
[Ac trans Ci fib]
+11.5 +10.4 93 +12 +12 тепло 1022.4 1011.5
06 17.10 С 1 15 км 9/0
[]
+12.2 +10.9 92 +12 +12 тепло 1022.3 1011.4 +11.3 +19.5 0.2
07 17.10 С 1 7000 м 9/1 1200 м
[Sc Ci fib]
+13.2 +12.1 93 +13 +13 тепло 1022.3 1011.5
08 17.10 штиль 0
{4}
15 км 9/1 1260 м
[Sc Ci fib]
+15.0 +12.7 86 +15 +16 тепло 1022.2 1011.4
09 17.10 В 1 11 км н/о +16.5 +12.8 79 +17 +17 тепло 1022.0 1011.3
10 17.10 СВ 1 10 км 9/3 1300 м
[Sc Ci fib]
+17.9 +13.8 77 +19 +22 тепло 1021.3 1010.6
11 17.10 В 1 12 км 9/0
[]
+19.3 +14.5 74 +22 +25 комфорт 1020.6 1010.0
12 17.10 В 1 12 км 9/0
[]
+21.2 +15.3 69 +24 +28 комфорт 1019.4 1008.9
13 17.10 ЮВ 1 13 км 9/0
[]
+22.0 +15.8 68 +26 +29 душно 1018.3 1007.8
14 17.10 ЮВ 1 16 км 9/0
[]
+23.0 +15.1 61 +27 +29 душно 1017.3 1006.9
15 17.10 СВ 1 15 км 9/0
[]
+22.2 +15.3 65 +26 +27 душно 1016.5 1006.1
16 17.10 В 1 19 км 9/0
[]
+21.7 +15.1 66 +25 +25 комфорт 1016.1 1005.6
17 17.10 В 1 15 км 9/0
[]
+20.1 +15.1 73 +24 +24 комфорт 1016.0 1005.5
18 17.10 В 1 16 км 9/0
[]
+17.0 +13.9 82 +19 +19 тепло 1015.9 1005.3 +12.2 +23.1
19 17.10 В 1 11 км 8/0
[]
+16.9 +14.5 86 +18 +18 тепло 1015.6 1005.0
20 17.10 В 1 12 км 6/0
[]
+16.9 +14.2 84 +18 +18 тепло 1015.1 1004.5
21 17.10 В 1 8000 м 6/0
[]
+16.0 +13.8 87 +17 +17 тепло 1015.0 1004.3
22 17.10 штиль 0 <100 м туман местами 5/0
[]
+14.4 +12.6 89 +14 +14 тепло 1015.0 1004.3
23 17.10 штиль 0 100 м туман местами 4/0
[]
+13.6 +12.8 95 +13 +13 тепло 1014.4 1003.7
00 18.10 штиль 0 100 м туман местами 3/0
[]
+13.4 +12.5 94 +13 +13 тепло 1014.2 1003.5
01 18.10 штиль 0 <100 м туман местами 3/3 60 м
[St]
+11.0 +9.7 92 +10 +10 тепло 1014.5 1003.6 0.2
02 18.10 ЮВ 1 3200 м в посл. час туман ясно +12.8 +12.2 96 +14 +14 тепло 1014.4 1003.6
03 18.10 Ю 1 8000 м в посл. час туман ясно +12.5 +11.2 92 +13 +13 тепло 1014.1 1003.3 0.2
04 18.10 Ю 2
{3}
10 км 5/0
[Ci fib]
+12.3 +10.7 90 +12 +12 тепло 1014.0 1003.2
05 18.10 Ю 1 12 км 3/0
[]
+12.1 +10.5 90 +12 +12 тепло 1013.7 1002.9
06 18.10 Ю 2 9000 м {туман} 3/0
[]
+11.7 +10.1 90 +11 +11 тепло 1013.8 1003.0 +11.0 +17.6 0.2
07 18.10 Ю 2 15 км 5/0
[]
+12.0 +10.4 90 +11 +11 тепло 1013.9 1003.1
08 18.10 Ю 1 18 км 6/0
[]
+13.4 +10.0 80 +14 +14 тепло 1014.1 1003.3
09 18.10 Ю 1 19 км 8/3 2000 м
[Sc Ac trans Ci fib]
+16.2 +10.9 71 +17 +18 тепло 1013.9 1003.3
10 18.10 Ю 2 16 км 9/9
[]
+16.8 +9.9 64 +17 +18 тепло 1013.8 1003.2
11 18.10 Ю 2 16 км 9/0
[Ac trans Ci fib]
+18.6 +10.7 60 +20 +24 тепло 1013.6 1003.0
12 18.10 Ю 2 11 км 9/0
[Ac trans Ci fib]
+19.5 +11.3 59 +22 +26 комфорт 1012.8 1002.3
13 18.10 Ю 2 23 км 9/0
[Ac trans]
+19.6 +11.6 60 +22 +24 комфорт 1012.3 1001.8
14 18.10 Ю 1 28 км 9/0
[Ac trans]
+19.7 +12.2 62 +23 +25 комфорт 1011.8 1001.3
15 18.10 ЮВ 1 29 км 9/0
[Ac trans]
+20.2 +12.7 62 +24 +25 комфорт 1011.5 1001.0
16 18.10 В 1 28 км 8/0
[Ac trans]
+19.2 +12.2 64 +21 +22 комфорт 1011.0 1000.5
17 18.10 В 1 16 км 9/0
[Ac trans]
+18.4 +12.2 67 +20 +20 тепло 1011.3 1000.8
18 18.10 В 1 20 км 9/0
[Ac trans]
+16.7 +11.8 73 +18 +18 тепло 1011.5 1000.9 +11.5 +20.3
19 18.10 В 1 15 км 9/0
[Ac As]
+14.8 +11.6 81 +15 +15 тепло 1011.3 1000.6
20 18.10 В 1 15 км 1/0
[Ac trans]
+15.4 +11.8 79 +17 +17 тепло 1011.2 1000.6
21 18.10 штиль 0 14 км н/о +14.5 +11.5 82 +14 +14 тепло 1011.8 1001.1
22 18.10 СВ 1 15 км 3/0
[]
+14.1 +10.7 80 +15 +15 тепло 1011.4 1000.7
23 18.10 СВ 1 11 км ясно +13.5 +10.5 82 +14 +14 тепло 1010.9 1000.2
00 19.10 В 1 15 км ясно +13.2 +10.2 82 +13 +13 тепло 1010.3 999.6
01 19.10 ЮВ 1 18 км ясно +12.6 +9.8 83 +13 +13 тепло 1010.1 999.4
02 19.10 штиль 0 18 км ясно +12.3 +9.8 85 +12 +12 тепло 1009.8 999.0 0.2
03 19.10 штиль 0 18 км ясно +12.0 +9.9 87 +11 +11 тепло 1009.5 998.7 0.2
04 19.10 штиль 0 10 км 1/0
[Ac trans]
+11.9 +10.0 88 +11 +11 тепло 1009.3 998.5
05 19.10 штиль 0 10 км 8/8 1500 м
[]
+12.0 +10.1 88 +11 +11 тепло 1009.2 998.4
06 19.10 ЮВ 1 12 км н/о +12.1 +10.2 88 +13 +13 тепло 1009.2 998.4 +11.4 +16.6 0.2
07 19.10 ЮВ 1 13 км н/о +12.8 +10.7 87 +14 +14 тепло 1009.2 998.5
08 19.10 ЮВ 1 18 км 9/1 1500 м
[Sc Ac trans]
+14.4 +11.5 83 +15 +15 тепло 1009.5 998.8
09 19.10 Ю 2 9000 м 9/4 1440 м
[]
+17.2 +12.9 76 +18 +18 тепло 1009.4 998.8
10 19.10 Ю 2 11 км н/о +18.7 +13.1 70 +20 +20 тепло 1009.1 998.6
11 19.10 Ю 3 18 км 4/1 700 м
[Cu hum Ac trans Ci fib]
+20.5 +13.9 66 +23 +26 комфорт 1008.7 998.3
12 19.10 Ю 4 12 км 3/1 800 м
[Cu hum Ac trans Ci fib]
+21.3 +13.7 62 +24 +27 комфорт 1008.1 997.7
13 19.10 Ю 3 20 км 8/8 1000 м
[Cu Sc Ci fib]
+20.6 +12.8 61 +23 +24 комфорт 1008.1 997.7
14 19.10 Ю 3 29 км 9/9 1000 м
[]
+20.1 +13.1 64 +22 +23 комфорт 1007.8 997.4
15 19.10 ЮЗ 2 35 км 9/9 1000 м
[]
+20.3 +12.8 62 +23 +23 комфорт 1007.5 997.1
16 19.10 ЮЗ 2 30 км 9/9 1050 м
[Cu Sc]
+19.6 +13.1 66 +22 +22 комфорт 1007.7 997.2
17 19.10 ЮЗ 2 45 км н/о +18.2 +11.7 66 +19 +19 тепло 1008.0 997.5
18 19.10 Ю 2 45 км 9/9 1000 м
[Sc]
+17.8 +11.8 68 +19 +19 тепло 1008.1 997.6 +12.0 +21.5
19 19.10 Ю 2 40 км н/о +17.1 +12.0 72 +18 +18 тепло 1007.8 997.3
20 19.10 Ю 2 30 км 1/1 1200 м
[Sc]
+16.8 +11.9 73 +17 +17 тепло 1008.0 997.4
21 19.10 Ю 2 50 км 1/1 1200 м
[Sc]
+15.8 +12.0 78 +16 +16 тепло 1008.1 997.5
22 19.10 Ю 3 45 км 6/0
[]
+15.7 +11.7 77 +15 +15 тепло 1008.4 997.8
23 19.10 Ю 2 40 км 8/0
[]
+15.5 +11.7 78 +15 +15 тепло 1008.3 997.7
00 20.10 Ю 3 45 км 9/8 630 м
[Sc Ci fib]
+15.6 +11.8 78 +15 +15 тепло 1008.0 997.4
01 20.10 ЮЗ 3 5000 м дождь 9/9 450 м
[Cu Sc]
+14.4 +12.4 88 +13 +13 тепло 1008.2 997.6 3
02 20.10 ЮЗ 3 12 км слабый дождь 9/9 330 м
[Cu Sc]
+13.7 +12.3 91 +12 +12 тепло 1008.3 997.6 2
03 20.10 ЮЗ 2 15 км в посл. час дождь 9/9 1500 м
[Sc]
+13.2 +10.6 84 +12 +12 тепло 1009.0 998.3 5
04 20.10 ЮЗ 2 18 км 9/9 480 м
[Sc]
+12.7 +10.4 86 +12 +12 тепло 1009.7 999.0
05 20.10 ЮЗ 2 50 км 4/4 500 м
[Sc]
+11.7 +9.3 85 +11 +11 тепло 1010.6 999.8
06 20.10 ЮЗ 2 30 км {дождь} 1/1 300 м
[Sc]
+11.1 +9.0 87 +10 +10 тепло 1011.4 1000.6 +11.1 +17.9 5
07 20.10 ЮЗ 3 15 км 1/1 500 м
[Sc Ac trans]
+11.0 +8.7 86 +9 +9 тепло 1012.5 1001.7
08 20.10 ЮЗ 3 30 км 1/1 420 м
[Cu hum Ci fib]
+12.1 +9.1 82 +10 +11 по сезону 1013.4 1002.6
09 20.10 ЮЗ 3 30 км 1/1 500 м
[Cu hum Ci fib]
+13.4 +9.1 75 +12 +14 тепло 1014.2 1003.4
10 20.10 З 4 19 км н/о +14.7 +8.0 64 +14 +14 тепло 1014.3 1003.6
11 20.10 ЮЗ 4 35 км 4/4 900 м
[Cu hum Ci fib]
+15.1 +7.6 61 +14 +16 тепло 1015.0 1004.3
12 20.10 ЮЗ 4 35 км 4/4 1170 м
[Cu hum Ci fib]
+16.3 +7.0 54 +16 +18 тепло 1015.0 1004.3
13 20.10 З 3 16 км 6/6 1170 м
[Cu med, cong Ci fib]
+16.7 +7.3 54 +17 +18 тепло 1014.8 1004.2
14 20.10 ЮЗ 3 35 км 1/1 1170 м
[Sc diur, vesp Ci fib]
+16.6 +7.2 54 +16 +19 тепло 1014.6 1003.9
15 20.10 ЮЗ 3 18 км 4/4 1110 м
[Sc diur, vesp Ci fib]
+16.1 +7.3 56 +16 +17 тепло 1014.9 1004.2
16 20.10 ЮЗ 3 19 км 1/1 1140 м
[Sc Ac trans]
+15.2 +7.5 60 +15 +15 тепло 1014.8 1004.1
17 20.10 ЮЗ 1 35 км 1/1 1140 м
[Sc Ac trans]
+13.8 +7.8 67 +14 +14 тепло 1015.1 1004.3
18 20.10 ЮЗ 1 26 км н/о +12.9 +7.8 71 +13 +13 тепло 1015.2 1004.4 +10.9 +16.9
19 20.10 Ю 2 30 км 8/0
[Ac trans]
+12.0 +7.9 76 +11 +11 тепло 1014.9 1004.1
20 20.10 Ю 2 30 км 1/0
[Ac trans]
+11.3 +7.8 79 +11 +11 тепло 1014.7 1003.9
21 20.10 Ю 1 30 км 1/0
[Ac trans]
+12.0 +7.7 75 +12 +12 тепло 1014.5 1003.7
22 20.10 Ю 2 30 км 1/0
[Ac trans]
+11.6 +7.9 78 +11 +11 тепло 1014.0 1003.2
23 20.10 Ю 1 35 км ясно +11.4 +8.3 81 +11 +11 тепло 1013.9 1003.1
00 21.10 Ю 2 30 км 1/0
[Ac trans]
+11.5 +8.9 84 +10 +10 по сезону 1013.5 1002.7

 

Местоположение метеостанции Paris Orly Airport (Франция): широта 48.72 долгота 2.38 высота над уровнем моря 90 м.

В архиве по умолчанию представлена погода в Paris Orly Airport за последнюю неделю. Архивные данные за месяц целиком и за предыдущие месяцы, начиная с января 2011 года, Вы можете получить, выбрав интересующий диапазон дат из раскрывающегося списка и нажав кнопку "Ввод!".

Внимание! Время в таблицах - всемирное. Для получения местного времени необходимо прибавить поправку, которая в Paris Orly Airport равна 1 ч.

Смотрите также архив погоды в соседних городах и на ближайших метеорологических станциях:

Погода в Paris (Франция) (12 км)
Погода в Villacoublay (Франция) (14 км)
Погода в Melun (Франция) (25 км)
Погода в Le Bourget (Франция) (28 км)
Погода в Trappes (Франция) (28 км)
Погода в Charles De Gaulle Airport (Франция) (35 км)
Погода в Cormeilles (Франция) (48 км)
Погода в Creil (Франция) (60 км)
Погода в Chartres (Франция) (70 км)
Погода в Beauvais (Франция) (86 км)

Пояснения к столбцам:

Ветер - указаны скорость ветра в м/с - средняя за 10 мин, порывы в срок и между сроками (в фигурных скобках) и направление, откуда дует ветер: С - северный, СВ - северо-восточный, В - восточный, ЮВ - юго-восточный, Ю - южный, ЮЗ - юго-западный, З - западный, СЗ - северо-западный.
Видимость - горизонтальная дальность видимости в метрах или километрах. При видимости от 1 до 10 км при отсутствии осадков обычно наблюдается дымка, при ухудшении видимости до 1 км и менее - туман. В сухую погоду видимость может ухудшаться дымом, пылью или мглою.
Явления - указаны атмосферные явления, наблюдавшиеся в срок или в последний час перед сроком; фигурными скобками обозначены явления, наблюдавшиеся между сроками (за 1-3 часа до срока); квадратными скобками обозначены град или гололедные отложения с указанием их диаметра в мм.
Облачность - указаны через наклонную черту общая и нижняя облачность в баллах и высота нижней границы облаков в метрах; квадратными скобками обозначены формы облаков: Ci - перистые, Cs - перисто-слоистые, Cc - перисто-кучевые, Ac - высококучевые, As - высокослоистые, Sc - слоисто-кучевые, Ns - слоисто-дождевые, Cu - кучевые, Cb - кучево-дождевые. Подробнее классификацию облаков см. в Атласе облаков (PDF).
T - Температура воздуха - температура, измеренная на высоте 2 м над землей.
Td - Температура точки росы - температура, при понижении до которой содержащийся в воздухе водяной пар достигнет насыщения.
f - Относительная влажность воздуха - влажноcть воздуха, измеренная на высоте 2 м над землей.
Te - Эффективная температура - температура, которую ощущает одетый по сезону человек в тени. Характеристика душности погоды. При расчете учитывается влияние влажности воздуха и скорости ветра на теплоощущения человека.
Tes - Эффективная температура на солнце - температура, которую ощущает человек, с поправкой на солнечный нагрев. Характеристика знойности погоды. Зависит от высоты солнца над горизонтом, облачности и скорости ветра. Ночью, в пасмурную погоду, а также при ветре 12 м/с и более поправка равна нулю.
P - Атмосферное давление - приведенное к уровню моря атмосферное давление.
Po - Атмосферное давление - измеренное на уровне метеостанции атмосферное давление.
Tmin - Минимальная температура - минимум температуры воздуха на высоте 2 м над землей.
Tmax - Максимальная температура - максимум температуры воздуха на высоте 2 м над землей.
R - Количество осадков - Количество выпавших осадков за период времени, мм. При наведении курсора мыши на число - период времени, за который выпало указанное количество осадков.
R24 - Количество осадков - Количество выпавших осадков за 24 часа, мм.
S - Снежный покров - Высота снежного покрова, см. При наведении курсора мыши на число - состояние снежного покрова и степень покрытия местности в баллах.